Time,TemperatureF,DewpointF,PressureIn,WindDirection,WindDirectionDegrees,WindSpeedMPH,WindSpeedGustMPH,Humidity,HourlyPrecipIn,Conditions,Clouds,dailyrainin,SoftwareType,DateUTC
2013-01-14 00:00:00,22.6,14.9,30.40,NE,41,3.0,8.0,72,0.00,,---,0.00,VWS V14.01,2013-01-14 06:00:00,
2013-01-14 00:06:00,22.5,14.9,30.40,NE,39,4.0,6.0,72,0.00,,---,0.00,VWS V14.01,2013-01-14 06:06:00,
2013-01-14 00:11:00,22.4,14.8,30.40,NE,50,3.0,6.0,72,0.00,,---,0.00,VWS V14.01,2013-01-14 06:11:00,
2013-01-14 00:16:00,22.3,15.0,30.40,ENE,57,2.0,6.0,73,0.00,,---,0.00,VWS V14.01,2013-01-14 06:16:00,
2013-01-14 00:21:00,22.1,15.1,30.40,NE,42,2.0,6.0,74,0.00,,---,0.00,VWS V14.01,2013-01-14 06:21:00,
2013-01-14 00:26:00,21.9,15.2,30.40,NNE,14,1.0,6.0,75,0.00,,---,0.00,VWS V14.01,2013-01-14 06:26:00,
2013-01-14 00:31:00,21.3,14.6,30.40,North,3,3.0,3.0,75,0.00,,---,0.00,VWS V14.01,2013-01-14 06:31:00,
2013-01-14 00:36:00,21.0,14.6,30.41,NNW,345,1.0,4.0,76,0.00,,---,0.00,VWS V14.01,2013-01-14 06:36:00,
2013-01-14 00:41:00,20.7,14.6,30.41,NNW,338,1.0,4.0,77,0.00,,---,0.00,VWS V14.01,2013-01-14 06:41:00,
2013-01-14 00:46:00,20.4,14.4,30.41,NNW,338,2.0,4.0,77,0.00,,---,0.00,VWS V14.01,2013-01-14 06:46:00,
2013-01-14 00:51:00,20.2,14.2,30.41,NNW,337,1.0,4.0,77,0.00,,---,0.00,VWS V14.01,2013-01-14 06:51:00,
2013-01-14 00:57:00,19.9,14.4,30.41,NNW,330,2.0,4.0,79,0.00,,---,0.00,VWS V14.01,2013-01-14 06:57:00,
2013-01-14 01:02:00,19.8,14.4,30.41,NNW,328,2.0,2.0,79,0.00,,---,0.00,VWS V14.01,2013-01-14 07:02:00,
2013-01-14 01:07:00,19.6,14.4,30.41,NNW,337,2.0,3.0,80,0.00,,---,0.00,VWS V14.01,2013-01-14 07:07:00,
2013-01-14 01:12:00,19.3,14.1,30.40,NNW,342,2.0,3.0,80,0.00,,---,0.00,VWS V14.01,2013-01-14 07:12:00,
2013-01-14 01:17:00,19.2,14.3,30.40,North,350,3.0,4.0,81,0.00,,---,0.00,VWS V14.01,2013-01-14 07:17:00,
2013-01-14 01:22:00,19.1,14.5,30.40,North,351,2.0,4.0,82,0.00,,---,0.00,VWS V14.01,2013-01-14 07:22:00,
2013-01-14 01:27:00,19.1,14.5,30.41,NNW,347,2.0,4.0,82,0.00,,---,0.00,VWS V14.01,2013-01-14 07:27:00,
2013-01-14 01:32:00,19.0,14.7,30.41,North,356,1.0,2.0,83,0.00,,---,0.00,VWS V14.01,2013-01-14 07:32:00,
2013-01-14 01:37:00,18.9,14.6,30.42,North,359,1.0,2.0,83,0.00,,---,0.00,VWS V14.01,2013-01-14 07:37:00,
2013-01-14 01:42:00,18.9,14.6,30.42,North,1,0.0,2.0,83,0.00,,---,0.00,VWS V14.01,2013-01-14 07:42:00,
2013-01-14 01:48:00,18.6,14.3,30.42,North,1,0.0,2.0,83,0.00,,---,0.00,VWS V14.01,2013-01-14 07:48:00,
2013-01-14 01:53:00,18.5,14.5,30.42,North,1,0.0,2.0,84,0.00,,---,0.00,VWS V14.01,2013-01-14 07:53:00,
2013-01-14 01:58:00,18.4,14.4,30.42,North,1,0.0,2.0,84,0.00,,---,0.00,VWS V14.01,2013-01-14 07:58:00,
2013-01-14 02:03:00,18.6,14.6,30.42,North,1,0.0,0.0,84,0.00,,---,0.00,VWS V14.01,2013-01-14 08:03:00,
2013-01-14 02:08:00,18.5,14.8,30.42,North,354,2.0,2.0,85,0.00,,---,0.00,VWS V14.01,2013-01-14 08:08:00,
2013-01-14 02:13:00,18.5,14.8,30.42,North,350,0.0,2.0,85,0.00,,---,0.00,VWS V14.01,2013-01-14 08:13:00,
2013-01-14 02:18:00,18.5,14.8,30.42,NNW,339,1.0,2.0,85,0.00,,---,0.00,VWS V14.01,2013-01-14 08:18:00,
2013-01-14 02:23:00,18.4,14.6,30.42,NW,319,2.0,2.0,85,0.00,,---,0.00,VWS V14.01,2013-01-14 08:23:00,
2013-01-14 02:29:00,18.3,14.8,30.43,NW,319,1.0,2.0,86,0.00,,---,0.00,VWS V14.01,2013-01-14 08:29:00,
2013-01-14 02:34:00,18.1,14.9,30.43,NW,319,1.0,2.0,87,0.00,,---,0.00,VWS V14.01,2013-01-14 08:34:00,
2013-01-14 02:39:00,18.2,15.0,30.43,NW,323,2.0,3.0,87,0.00,,---,0.00,VWS V14.01,2013-01-14 08:39:00,
2013-01-14 02:44:00,18.2,14.7,30.43,NNW,333,2.0,3.0,86,0.00,,---,0.00,VWS V14.01,2013-01-14 08:44:00,
2013-01-14 02:49:00,18.2,14.5,30.43,NNW,342,1.0,3.0,85,0.00,,---,0.00,VWS V14.01,2013-01-14 08:49:00,
2013-01-14 02:54:00,18.1,14.4,30.44,NNW,330,2.0,3.0,85,0.00,,---,0.00,VWS V14.01,2013-01-14 08:54:00,
2013-01-14 02:59:00,18.1,14.4,30.44,NNW,333,2.0,4.0,85,0.00,,---,0.00,VWS V14.01,2013-01-14 08:59:00,
2013-01-14 03:04:00,18.1,14.1,30.44,NNW,333,1.0,2.0,84,0.00,,---,0.00,VWS V14.01,2013-01-14 09:04:00,
2013-01-14 03:10:00,18.2,14.2,30.45,NNW,342,1.0,2.0,84,0.00,,---,0.00,VWS V14.01,2013-01-14 09:10:00,
2013-01-14 03:15:00,18.2,14.2,30.44,NNW,342,1.0,2.0,84,0.00,,---,0.00,VWS V14.01,2013-01-14 09:15:00,
2013-01-14 03:20:00,18.2,14.2,30.44,NNW,335,2.0,3.0,84,0.00,,---,0.00,VWS V14.01,2013-01-14 09:20:00,
2013-01-14 03:25:00,18.5,14.8,30.45,NNW,346,3.0,4.0,85,0.00,,---,0.00,VWS V14.01,2013-01-14 09:25:00,
2013-01-14 03:30:00,18.8,14.8,30.45,NNW,330,2.0,4.0,84,0.00,,---,0.00,VWS V14.01,2013-01-14 09:30:00,
2013-01-14 03:35:00,18.9,14.9,30.45,NNW,329,1.0,2.0,84,0.00,,---,0.00,VWS V14.01,2013-01-14 09:35:00,
2013-01-14 03:40:00,19.0,15.0,30.45,NNW,347,2.0,3.0,84,0.00,,---,0.00,VWS V14.01,2013-01-14 09:40:00,
2013-01-14 03:45:00,19.1,15.1,30.45,NNW,347,1.0,3.0,84,0.00,,---,0.00,VWS V14.01,2013-01-14 09:45:00,
2013-01-14 03:50:00,19.1,15.1,30.45,NNW,347,0.0,3.0,84,0.00,,---,0.00,VWS V14.01,2013-01-14 09:50:00,
2013-01-14 03:55:00,19.2,15.2,30.45,NNW,347,0.0,3.0,84,0.00,,---,0.00,VWS V14.01,2013-01-14 09:55:00,
2013-01-14 04:00:00,19.2,15.2,30.45,NNW,347,0.0,3.0,84,0.00,,---,0.00,VWS V14.01,2013-01-14 10:00:00,
2013-01-14 04:06:00,19.4,15.1,30.44,NW,318,2.0,2.0,83,0.00,,---,0.00,VWS V14.01,2013-01-14 10:06:00,
2013-01-14 04:11:00,19.6,15.3,30.44,NNW,330,2.0,2.0,83,0.00,,---,0.00,VWS V14.01,2013-01-14 10:11:00,
2013-01-14 04:16:00,19.8,15.5,30.44,NW,319,2.0,3.0,83,0.00,,---,0.00,VWS V14.01,2013-01-14 10:16:00,
2013-01-14 04:21:00,20.0,15.7,30.45,NW,323,2.0,3.0,83,0.00,,---,0.00,VWS V14.01,2013-01-14 10:21:00,
2013-01-14 04:26:00,20.2,15.9,30.44,NW,323,3.0,3.0,83,0.00,,---,0.00,VWS V14.01,2013-01-14 10:26:00,
2013-01-14 04:31:00,20.4,15.8,30.44,NW,321,3.0,3.0,82,0.00,,---,0.00,VWS V14.01,2013-01-14 10:31:00,
2013-01-14 04:36:00,20.6,16.0,30.44,NNW,330,2.0,5.0,82,0.00,,---,0.00,VWS V14.01,2013-01-14 10:36:00,
2013-01-14 04:41:00,20.6,15.7,30.44,NW,315,4.0,5.0,81,0.00,,---,0.00,VWS V14.01,2013-01-14 10:41:00,
2013-01-14 04:46:00,20.6,15.7,30.44,NW,322,1.0,5.0,81,0.00,,---,0.00,VWS V14.01,2013-01-14 10:46:00,
2013-01-14 04:51:00,20.7,15.8,30.44,NNW,328,4.0,5.0,81,0.00,,---,0.00,VWS V14.01,2013-01-14 10:51:00,
2013-01-14 04:57:00,20.8,15.6,30.43,NW,321,2.0,5.0,80,0.00,,---,0.00,VWS V14.01,2013-01-14 10:57:00,
2013-01-14 05:02:00,20.9,15.7,30.43,NNW,345,4.0,5.0,80,0.00,,---,0.00,VWS V14.01,2013-01-14 11:02:00,
2013-01-14 05:07:00,20.9,15.7,30.43,NNW,328,2.0,5.0,80,0.00,,---,0.00,VWS V14.01,2013-01-14 11:07:00,
2013-01-14 05:12:00,21.0,15.8,30.43,NNW,341,2.0,5.0,80,0.00,,---,0.00,VWS V14.01,2013-01-14 11:12:00,
2013-01-14 05:17:00,21.1,15.9,30.43,NW,319,2.0,5.0,80,0.00,,---,0.00,VWS V14.01,2013-01-14 11:17:00,
2013-01-14 05:22:00,21.2,16.0,30.43,NNW,330,3.0,6.0,80,0.00,,---,0.00,VWS V14.01,2013-01-14 11:22:00,
2013-01-14 05:27:00,21.3,15.8,30.43,North,8,2.0,6.0,79,0.00,,---,0.00,VWS V14.01,2013-01-14 11:27:00,
2013-01-14 05:32:00,21.5,16.0,30.43,NW,315,1.0,4.0,79,0.00,,---,0.00,VWS V14.01,2013-01-14 11:32:00,
2013-01-14 05:38:00,21.6,16.1,30.44,NNW,330,5.0,5.0,79,0.00,,---,0.00,VWS V14.01,2013-01-14 11:38:00,
2013-01-14 05:43:00,21.7,15.9,30.44,NW,320,3.0,5.0,78,0.00,,---,0.00,VWS V14.01,2013-01-14 11:43:00,
2013-01-14 05:48:00,21.9,16.1,30.44,NW,326,5.0,6.0,78,0.00,,---,0.00,VWS V14.01,2013-01-14 11:48:00,
2013-01-14 05:53:00,21.9,15.5,30.44,NNW,337,4.0,7.0,76,0.00,,---,0.00,VWS V14.01,2013-01-14 11:53:00,
2013-01-14 05:58:00,21.9,15.5,30.43,NNW,330,3.0,7.0,76,0.00,,---,0.00,VWS V14.01,2013-01-14 11:58:00,
2013-01-14 06:03:00,21.9,15.5,30.44,North,360,5.0,5.0,76,0.00,,---,0.00,VWS V14.01,2013-01-14 12:03:00,
2013-01-14 06:09:00,21.9,15.2,30.44,NW,311,2.0,6.0,75,0.00,,---,0.00,VWS V14.01,2013-01-14 12:09:00,
2013-01-14 06:14:00,21.9,15.5,30.44,NW,323,3.0,7.0,76,0.00,,---,0.00,VWS V14.01,2013-01-14 12:14:00,
2013-01-14 06:19:00,21.9,15.2,30.44,NW,316,5.0,9.0,75,0.00,,---,0.00,VWS V14.01,2013-01-14 12:19:00,
2013-01-14 06:24:00,21.9,15.5,30.43,NNW,333,5.0,9.0,76,0.00,,---,0.00,VWS V14.01,2013-01-14 12:24:00,
2013-01-14 06:29:00,21.8,15.4,30.44,NNW,329,5.0,9.0,76,0.00,,---,0.00,VWS V14.01,2013-01-14 12:29:00,
2013-01-14 06:34:00,21.7,15.0,30.44,North,355,7.0,8.0,75,0.00,,---,0.00,VWS V14.01,2013-01-14 12:34:00,
2013-01-14 06:39:00,21.7,15.3,30.44,NW,323,4.0,8.0,76,0.00,,---,0.00,VWS V14.01,2013-01-14 12:39:00,
2013-01-14 06:45:00,21.7,15.3,30.44,NW,324,6.0,8.0,76,0.00,,---,0.00,VWS V14.01,2013-01-14 12:45:00,
2013-01-14 06:50:00,21.7,15.3,30.44,NNW,346,4.0,8.0,76,0.00,,---,0.00,VWS V14.01,2013-01-14 12:50:00,
2013-01-14 06:55:00,21.9,15.5,30.44,NNW,343,2.0,10.0,76,0.00,,---,0.00,VWS V14.01,2013-01-14 12:55:00,
2013-01-14 07:00:00,21.9,15.5,30.44,North,350,4.0,10.0,76,0.00,,---,0.00,VWS V14.01,2013-01-14 13:00:00,
2013-01-14 07:05:00,22.0,15.6,30.44,North,8,9.0,9.0,76,0.00,,---,0.00,VWS V14.01,2013-01-14 13:05:00,
2013-01-14 07:11:00,22.1,15.7,30.44,NW,323,9.0,10.0,76,0.00,,---,0.00,VWS V14.01,2013-01-14 13:11:00,
2013-01-14 07:16:00,22.1,16.0,30.44,NNW,330,7.0,10.0,77,0.00,,---,0.00,VWS V14.01,2013-01-14 13:16:00,
2013-01-14 07:21:00,22.1,16.0,30.45,NNW,328,8.0,11.0,77,0.00,,---,0.00,VWS V14.01,2013-01-14 13:21:00,
2013-01-14 07:26:00,22.0,16.2,30.44,North,349,10.0,11.0,78,0.00,,---,0.00,VWS V14.01,2013-01-14 13:26:00,
2013-01-14 07:31:00,22.0,16.5,30.44,North,8,7.0,11.0,79,0.00,,---,0.00,VWS V14.01,2013-01-14 13:31:00,
2013-01-14 07:36:00,22.0,16.2,30.45,North,354,5.0,11.0,78,0.00,,---,0.00,VWS V14.01,2013-01-14 13:36:00,
2013-01-14 07:41:00,22.0,16.2,30.44,North,358,7.0,11.0,78,0.00,,---,0.00,VWS V14.01,2013-01-14 13:41:00,
2013-01-14 07:46:00,22.1,16.0,30.44,North,11,6.0,11.0,77,0.00,,---,0.00,VWS V14.01,2013-01-14 13:46:00,
2013-01-14 07:52:00,22.2,15.5,30.45,NNE,17,8.0,11.0,75,0.00,,---,0.00,VWS V14.01,2013-01-14 13:52:00,
2013-01-14 07:57:00,22.5,15.5,30.45,NNE,25,8.0,12.0,74,0.00,,---,0.00,VWS V14.01,2013-01-14 13:57:00,
2013-01-14 08:02:00,22.7,15.4,30.45,NNE,13,10.0,13.0,73,0.00,,---,0.00,VWS V14.01,2013-01-14 14:02:00,
2013-01-14 08:07:00,23.1,15.1,30.44,North,351,11.0,14.0,71,0.00,,---,0.00,VWS V14.01,2013-01-14 14:07:00,
2013-01-14 08:12:00,23.3,15.0,30.44,NNE,14,14.0,15.0,70,0.00,,---,0.00,VWS V14.01,2013-01-14 14:12:00,
2013-01-14 08:17:00,23.6,14.6,30.44,NNE,19,13.0,16.0,68,0.00,,---,0.00,VWS V14.01,2013-01-14 14:17:00,
2013-01-14 08:22:00,23.9,14.6,30.44,NNE,22,9.0,18.0,67,0.00,,---,0.00,VWS V14.01,2013-01-14 14:22:00,
2013-01-14 08:28:00,24.2,14.1,30.44,North,11,11.0,18.0,65,0.00,,---,0.00,VWS V14.01,2013-01-14 14:28:00,
2013-01-14 08:33:00,24.4,14.0,30.44,NE,35,9.0,16.0,64,0.00,,---,0.00,VWS V14.01,2013-01-14 14:33:00,
2013-01-14 08:38:00,24.7,14.3,30.44,NE,46,11.0,16.0,64,0.00,,---,0.00,VWS V14.01,2013-01-14 14:38:00,
2013-01-14 08:43:00,24.8,14.0,30.44,NNE,30,11.0,17.0,63,0.00,,---,0.00,VWS V14.01,2013-01-14 14:43:00,
2013-01-14 08:48:00,25.1,14.6,30.44,NE,39,14.0,17.0,64,0.00,,---,0.00,VWS V14.01,2013-01-14 14:48:00,
2013-01-14 08:53:00,25.3,14.5,30.44,ENE,66,15.0,17.0,63,0.00,,---,0.00,VWS V14.01,2013-01-14 14:53:00,
2013-01-14 08:59:00,25.5,14.7,30.45,NE,44,10.0,17.0,63,0.00,,---,0.00,VWS V14.01,2013-01-14 14:59:00,
2013-01-14 09:04:00,25.6,14.4,30.45,NE,51,9.0,16.0,62,0.00,,---,0.00,VWS V14.01,2013-01-14 15:04:00,
2013-01-14 09:09:00,25.8,14.2,30.46,NNE,15,9.0,16.0,61,0.00,,---,0.00,VWS V14.01,2013-01-14 15:09:00,
2013-01-14 09:14:00,26.1,14.1,30.46,ENE,58,13.0,16.0,60,0.00,,---,0.00,VWS V14.01,2013-01-14 15:14:00,
2013-01-14 09:19:00,26.2,13.8,30.46,NE,45,9.0,16.0,59,0.00,,---,0.00,VWS V14.01,2013-01-14 15:19:00,
2013-01-14 09:24:00,26.5,14.5,30.46,NE,41,8.0,16.0,60,0.00,,---,0.00,VWS V14.01,2013-01-14 15:24:00,
2013-01-14 09:29:00,26.7,13.5,30.46,NE,36,13.0,16.0,57,0.00,,---,0.00,VWS V14.01,2013-01-14 15:29:00,
2013-01-14 09:35:00,27.0,13.4,30.45,ENE,60,10.0,13.0,56,0.00,,---,0.00,VWS V14.01,2013-01-14 15:35:00,
2013-01-14 09:40:00,27.2,13.2,30.45,NE,53,6.0,13.0,55,0.00,,---,0.00,VWS V14.01,2013-01-14 15:40:00,
2013-01-14 09:45:00,27.5,13.5,30.45,NE,41,6.0,13.0,55,0.00,,---,0.00,VWS V14.01,2013-01-14 15:45:00,
2013-01-14 09:50:00,27.7,13.2,30.45,ENE,57,7.0,13.0,54,0.00,,---,0.00,VWS V14.01,2013-01-14 15:50:00,
2013-01-14 09:55:00,27.7,13.6,30.45,NE,42,8.0,13.0,55,0.00,,---,0.00,VWS V14.01,2013-01-14 15:55:00,
2013-01-14 10:00:00,28.1,14.0,30.45,East,83,9.0,13.0,55,0.00,,---,0.00,VWS V14.01,2013-01-14 16:00:00,
2013-01-14 10:05:00,28.6,13.2,30.45,ENE,64,12.0,14.0,52,0.00,,---,0.00,VWS V14.01,2013-01-14 16:05:00,
2013-01-14 10:10:00,28.6,13.2,30.45,NE,55,6.0,14.0,52,0.00,,---,0.00,VWS V14.01,2013-01-14 16:10:00,
2013-01-14 10:16:00,28.7,13.8,30.46,ENE,75,8.0,14.0,53,0.00,,---,0.00,VWS V14.01,2013-01-14 16:16:00,
2013-01-14 10:21:00,28.6,13.6,30.46,NE,46,6.0,14.0,53,0.00,,---,0.00,VWS V14.01,2013-01-14 16:21:00,
2013-01-14 10:26:00,28.5,13.6,30.46,ENE,75,5.0,14.0,53,0.00,,---,0.00,VWS V14.01,2013-01-14 16:26:00,
2013-01-14 10:31:00,28.7,13.3,30.45,ENE,73,8.0,8.0,52,0.00,,---,0.00,VWS V14.01,2013-01-14 16:31:00,
2013-01-14 10:36:00,28.7,13.3,30.45,East,80,4.0,12.0,52,0.00,,---,0.00,VWS V14.01,2013-01-14 16:36:00,
2013-01-14 10:41:00,29.6,14.1,30.45,ENE,71,5.0,12.0,52,0.00,,---,0.00,VWS V14.01,2013-01-14 16:41:00,
2013-01-14 10:46:00,30.2,13.8,30.45,NE,46,9.0,12.0,50,0.00,,---,0.00,VWS V14.01,2013-01-14 16:46:00,
2013-01-14 10:52:00,30.2,12.4,30.44,ENE,74,5.0,15.0,47,0.00,,---,0.00,VWS V14.01,2013-01-14 16:52:00,
2013-01-14 10:57:00,30.4,12.6,30.44,NE,55,10.0,15.0,47,0.00,,---,0.00,VWS V14.01,2013-01-14 16:57:00,
2013-01-14 11:02:00,30.8,12.0,30.44,ENE,75,8.0,14.0,45,0.00,,---,0.00,VWS V14.01,2013-01-14 17:02:00,
2013-01-14 11:07:00,31.0,12.2,30.44,ENE,77,16.0,16.0,45,0.00,,---,0.00,VWS V14.01,2013-01-14 17:07:00,
2013-01-14 11:12:00,31.3,11.9,30.44,ENE,58,6.0,16.0,44,0.00,,---,0.00,VWS V14.01,2013-01-14 17:12:00,
2013-01-14 11:17:00,31.3,11.9,30.43,ENE,77,7.0,16.0,44,0.00,,---,0.00,VWS V14.01,2013-01-14 17:17:00,
2013-01-14 11:22:00,31.6,12.2,30.43,ENE,77,9.0,16.0,44,0.00,,---,0.00,VWS V14.01,2013-01-14 17:22:00,
2013-01-14 11:28:00,31.6,12.2,30.43,NE,47,9.0,16.0,44,0.00,,---,0.00,VWS V14.01,2013-01-14 17:28:00,
2013-01-14 11:33:00,31.7,12.3,30.43,ENE,77,9.0,12.0,44,0.00,,---,0.00,VWS V14.01,2013-01-14 17:33:00,
2013-01-14 11:38:00,31.9,12.0,30.42,NE,48,9.0,12.0,43,0.00,,---,0.00,VWS V14.01,2013-01-14 17:38:00,
2013-01-14 11:43:00,32.0,12.6,30.42,NNE,33,10.0,12.0,44,0.00,,---,0.00,VWS V14.01,2013-01-14 17:43:00,
2013-01-14 11:48:00,32.3,12.3,30.42,ENE,70,8.0,14.0,43,0.00,,---,0.00,VWS V14.01,2013-01-14 17:48:00,
2013-01-14 11:53:00,32.0,12.1,30.42,NNE,20,8.0,14.0,43,0.00,,---,0.00,VWS V14.01,2013-01-14 17:53:00,
2013-01-14 11:59:00,32.1,12.7,30.41,NE,40,9.0,14.0,44,0.00,,---,0.00,VWS V14.01,2013-01-14 17:59:00,
2013-01-14 12:04:00,32.5,13.0,30.41,NE,46,8.0,13.0,44,0.00,,---,0.00,VWS V14.01,2013-01-14 18:04:00,
2013-01-14 12:09:00,32.4,12.4,30.41,ENE,72,7.0,13.0,43,0.00,,---,0.00,VWS V14.01,2013-01-14 18:09:00,
2013-01-14 12:14:00,32.5,12.5,30.40,ENE,74,4.0,13.0,43,0.00,,---,0.00,VWS V14.01,2013-01-14 18:14:00,
2013-01-14 12:19:00,33.0,13.0,30.40,NE,44,12.0,14.0,43,0.00,,---,0.00,VWS V14.01,2013-01-14 18:19:00,
2013-01-14 12:24:00,32.6,11.5,30.39,NE,43,4.0,14.0,41,0.00,,---,0.00,VWS V14.01,2013-01-14 18:24:00,
2013-01-14 12:29:00,32.7,11.6,30.38,NNE,13,7.0,14.0,41,0.00,,---,0.00,VWS V14.01,2013-01-14 18:29:00,
2013-01-14 12:34:00,33.2,12.6,30.38,NE,34,13.0,14.0,42,0.00,,---,0.00,VWS V14.01,2013-01-14 18:34:00,
2013-01-14 12:40:00,33.1,12.0,30.37,NE,56,6.0,15.0,41,0.00,,---,0.00,VWS V14.01,2013-01-14 18:40:00,
2013-01-14 12:45:00,33.1,12.5,30.37,NE,46,8.0,16.0,42,0.00,,---,0.00,VWS V14.01,2013-01-14 18:45:00,
2013-01-14 12:50:00,33.2,12.6,30.37,NNE,18,9.0,16.0,42,0.00,,---,0.00,VWS V14.01,2013-01-14 18:50:00,
2013-01-14 12:55:00,33.3,12.2,30.36,NNE,19,8.0,16.0,41,0.00,,---,0.00,VWS V14.01,2013-01-14 18:55:00,
2013-01-14 13:00:00,33.3,12.2,30.36,ENE,57,7.0,16.0,41,0.00,,---,0.00,VWS V14.01,2013-01-14 19:00:00,
2013-01-14 13:05:00,33.7,12.5,30.36,NNE,16,12.0,12.0,41,0.00,,---,0.00,VWS V14.01,2013-01-14 19:05:00,
2013-01-14 13:10:00,33.6,12.4,30.35,NNE,27,10.0,14.0,41,0.00,,---,0.00,VWS V14.01,2013-01-14 19:10:00,
2013-01-14 13:16:00,34.3,13.1,30.35,NNE,18,12.0,17.0,41,0.00,,---,0.00,VWS V14.01,2013-01-14 19:16:00,
2013-01-14 13:21:00,34.1,12.3,30.35,NE,42,9.0,17.0,40,0.00,,---,0.00,VWS V14.01,2013-01-14 19:21:00,
2013-01-14 13:26:00,33.9,12.1,30.34,NE,51,4.0,17.0,40,0.00,,---,0.00,VWS V14.01,2013-01-14 19:26:00,
2013-01-14 13:31:00,34.3,12.5,30.34,NE,49,7.0,13.0,40,0.00,,---,0.00,VWS V14.01,2013-01-14 19:31:00,
2013-01-14 13:36:00,34.7,11.7,30.33,NE,50,9.0,13.0,38,0.00,,---,0.00,VWS V14.01,2013-01-14 19:36:00,
2013-01-14 13:41:00,35.2,12.1,30.33,NE,42,9.0,14.0,38,0.00,,---,0.00,VWS V14.01,2013-01-14 19:41:00,
2013-01-14 13:46:00,35.1,12.6,30.33,ENE,58,5.0,14.0,39,0.00,,---,0.00,VWS V14.01,2013-01-14 19:46:00,
2013-01-14 13:51:00,35.2,12.1,30.32,NE,53,6.0,17.0,38,0.00,,---,0.00,VWS V14.01,2013-01-14 19:51:00,
2013-01-14 13:57:00,35.6,12.5,30.32,NNE,27,13.0,18.0,38,0.00,,---,0.00,VWS V14.01,2013-01-14 19:57:00,
2013-01-14 14:02:00,35.2,11.6,30.32,NNW,332,6.0,14.0,37,0.00,,---,0.00,VWS V14.01,2013-01-14 20:02:00,
2013-01-14 14:07:00,35.4,12.3,30.32,NE,53,7.0,14.0,38,0.00,,---,0.00,VWS V14.01,2013-01-14 20:07:00,
2013-01-14 14:12:00,35.7,12.0,30.32,North,357,12.0,17.0,37,0.00,,---,0.00,VWS V14.01,2013-01-14 20:12:00,
2013-01-14 14:17:00,36.0,12.3,30.31,NE,37,7.0,17.0,37,0.00,,---,0.00,VWS V14.01,2013-01-14 20:17:00,
2013-01-14 14:22:00,36.4,12.6,30.31,NNE,27,8.0,17.0,37,0.00,,---,0.00,VWS V14.01,2013-01-14 20:22:00,
2013-01-14 14:27:00,36.5,12.7,30.31,ENE,60,6.0,17.0,37,0.00,,---,0.00,VWS V14.01,2013-01-14 20:27:00,
2013-01-14 14:33:00,36.4,12.6,30.31,NE,47,8.0,14.0,37,0.00,,---,0.00,VWS V14.01,2013-01-14 20:33:00,
2013-01-14 14:38:00,36.7,12.3,30.31,ENE,64,6.0,14.0,36,0.00,,---,0.00,VWS V14.01,2013-01-14 20:38:00,
2013-01-14 14:43:00,37.0,12.5,30.31,NE,52,7.0,14.0,36,0.00,,---,0.00,VWS V14.01,2013-01-14 20:43:00,
2013-01-14 14:48:00,36.9,13.1,30.32,NE,36,7.0,14.0,37,0.00,,---,0.00,VWS V14.01,2013-01-14 20:48:00,
2013-01-14 14:53:00,37.3,12.2,30.32,ENE,58,6.0,14.0,35,0.00,,---,0.00,VWS V14.01,2013-01-14 20:53:00,
2013-01-14 14:58:00,37.2,12.1,30.32,ENE,65,6.0,14.0,35,0.00,,---,0.00,VWS V14.01,2013-01-14 20:58:00,
2013-01-14 15:04:00,37.2,12.1,30.32,North,352,8.0,14.0,35,0.00,,---,0.00,VWS V14.01,2013-01-14 21:04:00,
2013-01-14 15:09:00,37.5,13.0,30.32,North,6,9.0,15.0,36,0.00,,---,0.00,VWS V14.01,2013-01-14 21:09:00,
2013-01-14 15:14:00,37.3,12.2,30.32,NE,42,4.0,15.0,35,0.00,,---,0.00,VWS V14.01,2013-01-14 21:14:00,
2013-01-14 15:19:00,37.0,11.9,30.32,NE,46,6.0,15.0,35,0.00,,---,0.00,VWS V14.01,2013-01-14 21:19:00,
2013-01-14 15:24:00,37.0,12.5,30.33,ENE,63,6.0,15.0,36,0.00,,---,0.00,VWS V14.01,2013-01-14 21:24:00,
2013-01-14 15:29:00,36.9,11.8,30.33,ENE,58,7.0,15.0,35,0.00,,---,0.00,VWS V14.01,2013-01-14 21:29:00,
2013-01-14 15:34:00,37.0,12.5,30.33,ENE,59,5.0,12.0,36,0.00,,---,0.00,VWS V14.01,2013-01-14 21:34:00,
2013-01-14 15:40:00,37.2,12.1,30.33,ENE,71,7.0,12.0,35,0.00,,---,0.00,VWS V14.01,2013-01-14 21:40:00,
2013-01-14 15:45:00,37.3,12.8,30.33,East,83,6.0,12.0,36,0.00,,---,0.00,VWS V14.01,2013-01-14 21:45:00,
2013-01-14 15:50:00,37.5,13.0,30.33,ESE,108,4.0,12.0,36,0.00,,---,0.00,VWS V14.01,2013-01-14 21:50:00,
2013-01-14 15:55:00,37.5,12.4,30.33,ENE,74,5.0,13.0,35,0.00,,---,0.00,VWS V14.01,2013-01-14 21:55:00,
2013-01-14 16:00:00,37.8,13.3,30.33,ENE,70,4.0,13.0,36,0.00,,---,0.00,VWS V14.01,2013-01-14 22:00:00,
2013-01-14 16:05:00,37.6,12.4,30.33,NNE,18,2.0,10.0,35,0.00,,---,0.00,VWS V14.01,2013-01-14 22:05:00,
2013-01-14 16:10:00,37.3,12.2,30.33,ENE,78,4.0,10.0,35,0.00,,---,0.00,VWS V14.01,2013-01-14 22:10:00,
2013-01-14 16:15:00,36.9,12.4,30.33,NE,34,4.0,10.0,36,0.00,,---,0.00,VWS V14.01,2013-01-14 22:15:00,
2013-01-14 16:20:00,36.8,12.4,30.32,NE,41,9.0,12.0,36,0.00,,---,0.00,VWS V14.01,2013-01-14 22:20:00,
2013-01-14 16:26:00,37.1,13.2,30.32,NE,42,8.0,12.0,37,0.00,,---,0.00,VWS V14.01,2013-01-14 22:26:00,
2013-01-14 16:31:00,37.1,12.0,30.32,NE,34,5.0,6.0,35,0.00,,---,0.00,VWS V14.01,2013-01-14 22:31:00,
2013-01-14 16:36:00,37.4,12.3,30.32,ENE,57,7.0,12.0,35,0.00,,---,0.00,VWS V14.01,2013-01-14 22:36:00,
2013-01-14 16:41:00,37.4,12.3,30.32,ENE,65,4.0,12.0,35,0.00,,---,0.00,VWS V14.01,2013-01-14 22:41:00,
2013-01-14 16:46:00,37.4,12.3,30.32,ENE,60,5.0,12.0,35,0.00,,---,0.00,VWS V14.01,2013-01-14 22:46:00,
2013-01-14 16:51:00,37.3,12.2,30.32,NE,40,5.0,12.0,35,0.00,,---,0.00,VWS V14.01,2013-01-14 22:51:00,
2013-01-14 16:56:00,37.2,12.7,30.32,NE,37,5.0,12.0,36,0.00,,---,0.00,VWS V14.01,2013-01-14 22:56:00,
2013-01-14 17:01:00,37.1,12.6,30.32,ENE,67,6.0,7.0,36,0.00,,---,0.00,VWS V14.01,2013-01-14 23:01:00,
2013-01-14 17:07:00,36.8,12.4,30.32,NE,44,9.0,9.0,36,0.00,,---,0.00,VWS V14.01,2013-01-14 23:07:00,
2013-01-14 17:12:00,36.5,12.7,30.33,ENE,64,5.0,10.0,37,0.00,,---,0.00,VWS V14.01,2013-01-14 23:12:00,
2013-01-14 17:17:00,36.3,13.1,30.33,ENE,72,3.0,10.0,38,0.00,,---,0.00,VWS V14.01,2013-01-14 23:17:00,
2013-01-14 17:22:00,36.2,13.1,30.33,NE,55,5.0,10.0,38,0.00,,---,0.00,VWS V14.01,2013-01-14 23:22:00,
2013-01-14 17:27:00,36.0,13.5,30.33,East,81,4.0,10.0,39,0.00,,---,0.00,VWS V14.01,2013-01-14 23:27:00,
2013-01-14 17:32:00,35.8,13.3,30.33,NE,55,4.0,6.0,39,0.00,,---,0.00,VWS V14.01,2013-01-14 23:32:00,
2013-01-14 17:37:00,35.5,13.6,30.33,ENE,62,3.0,6.0,40,0.00,,---,0.00,VWS V14.01,2013-01-14 23:37:00,
2013-01-14 17:42:00,35.4,13.5,30.33,ENE,63,6.0,7.0,40,0.00,,---,0.00,VWS V14.01,2013-01-14 23:42:00,
2013-01-14 17:48:00,35.3,13.4,30.33,ENE,66,3.0,7.0,40,0.00,,---,0.00,VWS V14.01,2013-01-14 23:48:00,
2013-01-14 17:53:00,35.1,13.8,30.33,ENE,71,3.0,7.0,41,0.00,,---,0.00,VWS V14.01,2013-01-14 23:53:00,
2013-01-14 17:58:00,34.9,13.6,30.33,NE,56,3.0,7.0,41,0.00,,---,0.00,VWS V14.01,2013-01-14 23:58:00,
2013-01-14 18:03:00,34.7,14.0,30.33,ENE,65,2.0,4.0,42,0.00,,---,0.00,VWS V14.01,2013-01-15 00:03:00,
2013-01-14 18:08:00,34.4,14.8,30.34,ENE,68,1.0,4.0,44,0.00,,---,0.00,VWS V14.01,2013-01-15 00:08:00,
2013-01-14 18:13:00,34.1,15.0,30.34,ENE,63,2.0,4.0,45,0.00,,---,0.00,VWS V14.01,2013-01-15 00:13:00,
2013-01-14 18:18:00,33.7,15.1,30.34,ENE,67,2.0,4.0,46,0.00,,---,0.00,VWS V14.01,2013-01-15 00:18:00,
2013-01-14 18:23:00,33.5,14.9,30.34,ENE,60,3.0,4.0,46,0.00,,---,0.00,VWS V14.01,2013-01-15 00:23:00,
2013-01-14 18:29:00,33.4,14.9,30.34,ENE,66,3.0,5.0,46,0.00,,---,0.00,VWS V14.01,2013-01-15 00:29:00,
2013-01-14 18:34:00,33.2,14.7,30.34,ENE,61,4.0,5.0,46,0.00,,---,0.00,VWS V14.01,2013-01-15 00:34:00,
2013-01-14 18:39:00,32.9,14.9,30.34,ENE,67,2.0,5.0,47,0.00,,---,0.00,VWS V14.01,2013-01-15 00:39:00,
2013-01-14 18:44:00,32.7,14.7,30.34,NE,45,3.0,5.0,47,0.00,,---,0.00,VWS V14.01,2013-01-15 00:44:00,
2013-01-14 18:49:00,32.5,15.0,30.34,ENE,62,2.0,5.0,48,0.00,,---,0.00,VWS V14.01,2013-01-15 00:49:00,
2013-01-14 18:54:00,32.1,15.1,30.34,ENE,63,2.0,5.0,49,0.00,,---,0.00,VWS V14.01,2013-01-15 00:54:00,
2013-01-14 18:59:00,31.9,14.9,30.34,ENE,66,2.0,5.0,49,0.00,,---,0.00,VWS V14.01,2013-01-15 00:59:00,
2013-01-14 19:05:00,31.8,14.8,30.35,ENE,61,4.0,4.0,49,0.00,,---,0.00,VWS V14.01,2013-01-15 01:05:00,
2013-01-14 19:10:00,31.8,15.8,30.35,NE,56,2.0,4.0,51,0.00,,---,0.00,VWS V14.01,2013-01-15 01:10:00,
2013-01-14 19:15:00,31.7,15.7,30.35,NE,49,3.0,4.0,51,0.00,,---,0.00,VWS V14.01,2013-01-15 01:15:00,
2013-01-14 19:20:00,31.7,15.2,30.35,NE,44,3.0,5.0,50,0.00,,---,0.00,VWS V14.01,2013-01-15 01:20:00,
2013-01-14 19:25:00,31.6,15.1,30.35,NE,40,4.0,6.0,50,0.00,,---,0.00,VWS V14.01,2013-01-15 01:25:00,
2013-01-14 19:30:00,31.3,14.8,30.35,NE,41,4.0,6.0,50,0.00,,---,0.00,VWS V14.01,2013-01-15 01:30:00,
2013-01-14 19:35:00,31.3,15.3,30.35,NE,39,4.0,5.0,51,0.00,,---,0.00,VWS V14.01,2013-01-15 01:35:00,
2013-01-14 19:41:00,31.3,15.7,30.35,NE,51,3.0,6.0,52,0.00,,---,0.00,VWS V14.01,2013-01-15 01:41:00,
2013-01-14 19:46:00,31.0,16.3,30.35,NNE,18,3.0,6.0,54,0.00,,---,0.00,VWS V14.01,2013-01-15 01:46:00,
2013-01-14 19:51:00,30.6,16.4,30.35,North,11,2.0,6.0,55,0.00,,---,0.00,VWS V14.01,2013-01-15 01:51:00,
2013-01-14 19:56:00,30.4,16.2,30.35,NNW,342,3.0,6.0,55,0.00,,---,0.00,VWS V14.01,2013-01-15 01:56:00,
2013-01-14 20:01:00,30.2,16.4,30.35,North,6,3.0,3.0,56,0.00,,---,0.00,VWS V14.01,2013-01-15 02:01:00,
2013-01-14 20:06:00,30.1,16.7,30.35,NNE,27,3.0,4.0,57,0.00,,---,0.00,VWS V14.01,2013-01-15 02:06:00,
2013-01-14 20:11:00,29.9,16.9,30.34,NNE,26,2.0,4.0,58,0.00,,---,0.00,VWS V14.01,2013-01-15 02:11:00,
2013-01-14 20:16:00,29.8,16.4,30.34,NNE,27,3.0,4.0,57,0.00,,---,0.00,VWS V14.01,2013-01-15 02:16:00,
2013-01-14 20:22:00,29.6,16.6,30.34,NE,36,3.0,4.0,58,0.00,,---,0.00,VWS V14.01,2013-01-15 02:22:00,
2013-01-14 20:27:00,29.4,16.1,30.34,NE,40,4.0,4.0,57,0.00,,---,0.00,VWS V14.01,2013-01-15 02:27:00,
2013-01-14 20:32:00,29.3,16.0,30.34,NNE,27,4.0,4.0,57,0.00,,---,0.00,VWS V14.01,2013-01-15 02:32:00,
2013-01-14 20:37:00,29.0,16.5,30.34,NNE,18,1.0,4.0,59,0.00,,---,0.00,VWS V14.01,2013-01-15 02:37:00,
2013-01-14 20:42:00,28.4,16.3,30.34,North,1,2.0,4.0,60,0.00,,---,0.00,VWS V14.01,2013-01-15 02:42:00,
2013-01-14 20:47:00,28.1,16.8,30.34,North,352,1.0,4.0,62,0.00,,---,0.00,VWS V14.01,2013-01-15 02:47:00,
2013-01-14 20:52:00,27.9,16.2,30.34,North,9,2.0,4.0,61,0.00,,---,0.00,VWS V14.01,2013-01-15 02:52:00,
2013-01-14 20:58:00,27.9,16.2,30.34,NE,35,2.0,4.0,61,0.00,,---,0.00,VWS V14.01,2013-01-15 02:58:00,
2013-01-14 21:03:00,27.9,15.4,30.33,NNE,30,2.0,3.0,59,0.00,,---,0.00,VWS V14.01,2013-01-15 03:03:00,
2013-01-14 21:08:00,27.7,16.0,30.33,NNE,22,3.0,4.0,61,0.00,,---,0.00,VWS V14.01,2013-01-15 03:08:00,
2013-01-14 21:13:00,27.1,16.2,30.33,NNW,347,2.0,4.0,63,0.00,,---,0.00,VWS V14.01,2013-01-15 03:13:00,
2013-01-14 21:18:00,26.7,16.9,30.33,NNW,341,2.0,4.0,66,0.00,,---,0.00,VWS V14.01,2013-01-15 03:18:00,
2013-01-14 21:23:00,26.4,16.6,30.33,NNW,342,3.0,4.0,66,0.00,,---,0.00,VWS V14.01,2013-01-15 03:23:00,
2013-01-14 21:28:00,26.2,16.8,30.33,North,358,3.0,4.0,67,0.00,,---,0.00,VWS V14.01,2013-01-15 03:28:00,
2013-01-14 21:33:00,26.2,17.1,30.33,North,359,3.0,4.0,68,0.00,,---,0.00,VWS V14.01,2013-01-15 03:33:00,
2013-01-14 21:39:00,25.9,17.1,30.33,NNW,346,2.0,4.0,69,0.00,,---,0.00,VWS V14.01,2013-01-15 03:39:00,
2013-01-14 21:44:00,25.7,17.6,30.33,North,351,2.0,4.0,71,0.00,,---,0.00,VWS V14.01,2013-01-15 03:44:00,
2013-01-14 21:49:00,25.5,17.4,30.33,North,351,2.0,4.0,71,0.00,,---,0.00,VWS V14.01,2013-01-15 03:49:00,
2013-01-14 21:54:00,25.3,17.5,30.33,North,1,2.0,4.0,72,0.00,,---,0.00,VWS V14.01,2013-01-15 03:54:00,
2013-01-14 21:59:00,25.3,17.9,30.33,North,4,2.0,4.0,73,0.00,,---,0.00,VWS V14.01,2013-01-15 03:59:00,
2013-01-14 22:04:00,25.3,18.2,30.33,NNE,28,2.0,3.0,74,0.00,,---,0.00,VWS V14.01,2013-01-15 04:04:00,
2013-01-14 22:09:00,25.2,18.1,30.33,NNE,29,1.0,3.0,74,0.00,,---,0.00,VWS V14.01,2013-01-15 04:09:00,
2013-01-14 22:14:00,25.2,17.5,30.33,NNE,30,0.0,3.0,72,0.00,,---,0.00,VWS V14.01,2013-01-15 04:14:00,
2013-01-14 22:19:00,25.2,17.1,30.33,NNE,30,1.0,3.0,71,0.00,,---,0.00,VWS V14.01,2013-01-15 04:19:00,
2013-01-14 22:25:00,25.0,16.9,30.34,North,4,2.0,3.0,71,0.00,,---,0.00,VWS V14.01,2013-01-15 04:25:00,
2013-01-14 22:30:00,24.7,17.6,30.33,North,356,1.0,3.0,74,0.00,,---,0.00,VWS V14.01,2013-01-15 04:30:00,
2013-01-14 22:35:00,24.5,17.4,30.34,NNW,340,1.0,2.0,74,0.00,,---,0.00,VWS V14.01,2013-01-15 04:35:00,
2013-01-14 22:40:00,24.6,17.5,30.34,NNW,341,1.0,2.0,74,0.00,,---,0.00,VWS V14.01,2013-01-15 04:40:00,
2013-01-14 22:45:00,24.6,17.5,30.34,NNW,327,2.0,3.0,74,0.00,,---,0.00,VWS V14.01,2013-01-15 04:45:00,
2013-01-14 22:50:00,24.5,17.7,30.34,NNW,335,2.0,3.0,75,0.00,,---,0.00,VWS V14.01,2013-01-15 04:50:00,
2013-01-14 22:55:00,24.4,17.6,30.34,NNW,340,3.0,4.0,75,0.00,,---,0.00,VWS V14.01,2013-01-15 04:55:00,
2013-01-14 23:00:00,24.1,17.6,30.33,North,350,3.0,4.0,76,0.00,,---,0.00,VWS V14.01,2013-01-15 05:00:00,
2013-01-14 23:01:00,24.1,17.6,30.33,North,350,3.0,3.0,76,0.00,,---,0.00,VWS V14.01,2013-01-15 05:01:00,
2013-01-14 23:02:00,24.0,17.5,30.33,North,350,2.0,3.0,76,0.00,,---,0.00,VWS V14.01,2013-01-15 05:02:00,
2013-01-14 23:04:00,23.9,17.8,30.33,NNW,340,2.0,3.0,77,0.00,,---,0.00,VWS V14.01,2013-01-15 05:04:00,
2013-01-14 23:09:00,23.6,17.5,30.34,North,4,4.0,4.0,77,0.00,,---,0.00,VWS V14.01,2013-01-15 05:09:00,
2013-01-14 23:14:00,23.6,17.8,30.33,North,349,4.0,5.0,78,0.00,,---,0.00,VWS V14.01,2013-01-15 05:14:00,
2013-01-14 23:19:00,23.6,17.8,30.33,NNE,12,4.0,6.0,78,0.00,,---,0.00,VWS V14.01,2013-01-15 05:19:00,
2013-01-14 23:25:00,23.5,18.0,30.33,NNE,27,3.0,6.0,79,0.00,,---,0.00,VWS V14.01,2013-01-15 05:25:00,
2013-01-14 23:30:00,23.6,18.1,30.33,North,6,1.0,6.0,79,0.00,,---,0.00,VWS V14.01,2013-01-15 05:30:00,
2013-01-14 23:35:00,23.5,18.0,30.34,North,359,2.0,4.0,79,0.00,,---,0.00,VWS V14.01,2013-01-15 05:35:00,
2013-01-14 23:40:00,23.4,17.9,30.34,NNW,346,2.0,4.0,79,0.00,,---,0.00,VWS V14.01,2013-01-15 05:40:00,
2013-01-14 23:45:00,23.2,17.7,30.34,North,5,2.0,4.0,79,0.00,,---,0.00,VWS V14.01,2013-01-15 05:45:00,
2013-01-14 23:50:00,23.0,17.5,30.34,NNW,347,2.0,4.0,79,0.00,,---,0.00,VWS V14.01,2013-01-15 05:50:00,
2013-01-14 23:56:00,23.0,17.8,30.34,North,356,1.0,4.0,80,0.00,,---,0.00,VWS V14.01,2013-01-15 05:56:00,